User: anonymous   Login
Location: Ch�tillon
(48.8024°N, 2.2935°E)
Time: 10:45:04
(UTC+00:00)
Language:

ITAMSAT 1 - Orbit

View from above orbital plane
View from above orbital plane
View from above satellite
View from above satellite

Ground track
Ground track

The orbit data is extracted from the following two-line orbital elements,

1 22826U 93061D   22175.81193340  .00000059  00000-0  40381-4 0  9999
2 22826  98.8804 206.8840 0009363  23.8475 336.3138 14.30522773499460
Epoch (UTC): 24 June 2022 19:29:11
Eccentricity: 0.0009363
inclination: 98.8804°
perigee height: 783 km
apogee height: 796 km
right ascension of ascending node: 206.8840°
argument of perigee: 23.8475°
revolutions per day: 14.30522773
mean anomaly at epoch: 336.3138°
orbit number at epoch: 49946

The dashed part of the orbit path shows where the satellite is in the earth's shadow,  

DLR